Weather History for Melbourne, FL

Change the Weather History Date:

Sunday, July 21, 2013

  Actual Average Record
Temperature  
Mean Temperature 86 °F 82 °F  
Max Temperature 95 °F 91 °F 99 °F (1942)
Min Temperature 76 °F 73 °F 69 °F (1965)
Degree Days  
Heating Degree Days 0 0  
Month to date heating degree days 0 0  
Since 1 June heating degree days 0 0  
Since 1 July heating degree days 0 0  
Cooling Degree Days 21 17  
Month to date cooling degree days 368 346  
Year to date cooling degree days 1727 1534  
Since 1 June cooling degree days 866 808  
Growing Degree Days 34 (Base 50)    
Moisture  
Dew Point 72 °F    
Average Humidity 69    
Maximum Humidity 85    
Minimum Humidity 52    
Precipitation  
Precipitation 1.00 in 0.19 in 3.12 in (1945)
Month to date precipitation 4.09 3.92  
Year to date precipitation 26.16 24.13  
Sea Level Pressure  
Sea Level Pressure 30.10 in    
Wind  
Wind Speed 5 mph (SSW)    
Max Wind Speed 26 mph    
Max Gust Speed 35 mph    
Visibility 8 miles    
Events Rain , Thunderstorm    
T = Trace of Precipitation, MM = Missing Value Source: NWS Daily Summary

Daily Weather History Graph

Daily Weather History Graph

Search for Another Location

Airport:

Trip Planner

Search our weather history database for the weather conditions in past years. The results will help you decide how hot, cold, wet, or windy it might be!

Date:

Astronomy

Jul. 21, 2013 Rise Set
Actual Time 6:39 AM EDT 8:18 PM EDT
Civil Twilight 6:13 AM EDT 8:44 PM EDT
Nautical Twilight 5:42 AM EDT 9:15 PM EDT
Astronomical Twilight 5:09 AM EDT 9:48 PM EDT
Moon 7:19 PM EDT (7/21) 5:21 AM EDT (7/21)
Length of Visible Light 14h 31m
Length of Day
13h 39m
Waxing Gibbous, 98% of the Moon is Illuminated
Jul 21
Waxing Gibbous
Jul 22
Full
Jul 29
Last Quarter
Aug 6
New
Aug 14
First Quarter

Hourly Weather History & Observations

Time (EDT) Temp. Heat Index Dew Point Humidity Pressure Visibility Wind Dir Wind Speed Gust Speed Precip Events Conditions
12:53 AM 81.0 °F 86.2 °F 73.9 °F 79% 30.10 in 10.0 mi South 3.5 mph - 0.00 in   Partly Cloudy
1:53 AM 80.1 °F 84.2 °F 73.0 °F 79% 30.09 in 10.0 mi Calm Calm - N/A   Clear
2:53 AM 79.0 °F - 73.0 °F 82% 30.08 in 10.0 mi Calm Calm - N/A   Clear
3:53 AM 79.0 °F - 73.0 °F 82% 30.07 in 10.0 mi Calm Calm - N/A   Scattered Clouds
4:53 AM 79.0 °F - 73.0 °F 82% 30.08 in 10.0 mi Calm Calm - N/A   Mostly Cloudy
5:53 AM 79.0 °F - 73.0 °F 82% 30.08 in 10.0 mi Calm Calm - N/A   Clear
6:53 AM 79.0 °F - 73.0 °F 82% 30.08 in 10.0 mi SSW 4.6 mph - N/A   Partly Cloudy
7:53 AM 80.1 °F 84.2 °F 73.0 °F 79% 30.11 in 10.0 mi South 5.8 mph - N/A   Scattered Clouds
8:53 AM 82.0 °F 87.9 °F 73.9 °F 76% 30.12 in 10.0 mi SSW 5.8 mph - N/A   Scattered Clouds
9:53 AM 84.0 °F 91.9 °F 75.0 °F 74% 30.14 in 10.0 mi SSW 9.2 mph - N/A   Partly Cloudy
10:53 AM 86.0 °F 96.0 °F 75.9 °F 72% 30.14 in 10.0 mi SSW 6.9 mph - N/A   Clear
11:53 AM 89.1 °F 99.1 °F 75.0 °F 63% 30.13 in 10.0 mi SW 6.9 mph - N/A   Clear
12:53 PM 91.0 °F 99.3 °F 73.0 °F 55% 30.12 in 10.0 mi SW 9.2 mph - N/A   Scattered Clouds
1:53 PM 93.0 °F 103.2 °F 73.9 °F 54% 30.10 in 10.0 mi West 8.1 mph - N/A   Mostly Cloudy
2:53 PM 93.2 °F 102.4 °F 73.4 °F 52% 30.08 in 10.0 mi SE 5.8 mph - N/A Thunderstorm Mostly Cloudy
3:38 PM 82.4 °F 86.3 °F 69.8 °F 66% 30.07 in 4.0 mi South 11.5 mph - 0.02 in Rain Rain
3:53 PM 84.0 °F 89.0 °F 71.1 °F 65% 30.07 in 10.0 mi WSW 8.1 mph - 0.02 in   Mostly Cloudy
4:53 PM 86.0 °F 96.9 °F 77.0 °F 74% 30.06 in 9.0 mi ESE 9.2 mph - 0.01 in Rain Light Rain
5:53 PM 84.9 °F 91.4 °F 73.0 °F 67% 30.05 in 10.0 mi ESE 9.2 mph - 0.00 in Rain Light Rain
6:41 PM 80.6 °F 83.9 °F 69.8 °F 70% 30.11 in 0.8 mi WSW 24.2 mph 34.5 mph 0.25 in Rain Heavy Rain
6:47 PM 75.2 °F - 68.0 °F 78% 30.09 in 0.2 mi SW 23.0 mph 34.5 mph 0.58 in Rain Heavy Rain
6:53 PM 75.9 °F - 69.1 °F 79% 30.08 in 0.2 mi SSW 20.7 mph 33.4 mph 0.78 in Rain Heavy Rain
6:55 PM 75.2 °F - 69.8 °F 83% 30.07 in 1.0 mi South 18.4 mph 33.4 mph 0.03 in Rain Heavy Rain
7:28 PM 77.0 °F - 69.8 °F 78% 30.10 in 10.0 mi West 9.2 mph - 0.17 in Rain , Thunderstorm Light Rain
7:53 PM 77.0 °F - 70.0 °F 79% 30.12 in 10.0 mi Calm Calm - 0.17 in Thunderstorm Partly Cloudy
8:53 PM 78.1 °F - 71.1 °F 79% 30.12 in 10.0 mi South 3.5 mph - 0.00 in Thunderstorm Scattered Clouds
9:01 PM 78.8 °F - 71.6 °F 78% 30.13 in 10.0 mi SSE 4.6 mph - N/A   Partly Cloudy
9:53 PM 78.1 °F - 72.0 °F 81% 30.15 in 10.0 mi SSW 9.2 mph - 0.00 in Rain Light Rain
10:53 PM 77.0 °F - 71.1 °F 82% 30.14 in 10.0 mi Calm Calm - 0.01 in Rain Light Rain
11:53 PM 78.1 °F - 71.1 °F 79% 30.13 in 10.0 mi SW 3.5 mph - 0.01 in   Clear